TimeCDT,TemperatureF,Dew PointF,Humidity,Sea Level PressureIn,VisibilityMPH,Wind Direction,Wind SpeedMPH,Gust SpeedMPH,PrecipitationIn,Events,Conditions,WindDirDegrees,DateUTC
12:53 AM,62.1,57.9,86,29.88,10.0,West,4.6,-,N/A,,Mostly Cloudy,270,2013-07-10 05:53:00
1:53 AM,60.1,57.0,90,29.88,10.0,West,6.9,-,N/A,,Clear,260,2013-07-10 06:53:00
2:53 AM,60.1,57.0,90,29.88,10.0,West,5.8,-,N/A,,Partly Cloudy,260,2013-07-10 07:53:00
3:53 AM,57.9,55.0,90,29.90,10.0,WSW,6.9,-,N/A,,Clear,250,2013-07-10 08:53:00
4:53 AM,55.9,54.0,93,29.92,10.0,WSW,5.8,-,N/A,,Clear,240,2013-07-10 09:53:00
5:53 AM,55.9,54.0,93,29.93,8.0,West,5.8,-,N/A,,Clear,260,2013-07-10 10:53:00
6:53 AM,59.0,55.0,87,29.94,8.0,WNW,8.1,-,N/A,,Clear,290,2013-07-10 11:53:00
7:53 AM,62.1,55.9,80,29.96,8.0,WNW,8.1,17.3,N/A,,Clear,290,2013-07-10 12:53:00
8:53 AM,64.9,57.0,75,29.97,8.0,WNW,9.2,16.1,N/A,,Clear,300,2013-07-10 13:53:00
9:53 AM,66.9,55.9,68,29.98,9.0,NW,9.2,19.6,N/A,,Clear,320,2013-07-10 14:53:00
10:53 AM,69.1,55.9,63,29.98,9.0,NW,10.4,20.7,N/A,,Partly Cloudy,310,2013-07-10 15:53:00
11:53 AM,70.0,54.0,57,29.99,10.0,NW,12.7,19.6,N/A,,Partly Cloudy,320,2013-07-10 16:53:00
12:53 PM,72.0,54.0,53,30.00,10.0,NW,11.5,19.6,N/A,,Scattered Clouds,320,2013-07-10 17:53:00
1:53 PM,73.0,52.0,48,29.99,10.0,NW,11.5,21.9,N/A,,Scattered Clouds,310,2013-07-10 18:53:00
2:53 PM,73.9,52.0,46,29.99,10.0,WNW,10.4,20.7,N/A,,Mostly Cloudy,300,2013-07-10 19:53:00
3:53 PM,75.9,54.0,46,29.97,10.0,Variable,6.9,-,N/A,,Partly Cloudy,0,2013-07-10 20:53:00
4:53 PM,75.9,53.1,45,29.97,10.0,NW,9.2,-,N/A,,Partly Cloudy,310,2013-07-10 21:53:00
5:53 PM,75.9,53.1,45,29.97,10.0,NW,8.1,-,N/A,,Partly Cloudy,320,2013-07-10 22:53:00
6:53 PM,73.9,53.1,48,29.97,10.0,WNW,3.5,-,N/A,,Clear,290,2013-07-10 23:53:00
7:53 PM,70.0,60.1,71,29.98,10.0,Calm,Calm,-,N/A,,Clear,0,2013-07-11 00:53:00
8:53 PM,64.0,57.0,78,29.99,10.0,Calm,Calm,-,N/A,,Clear,0,2013-07-11 01:53:00
9:53 PM,64.9,55.9,73,30.01,10.0,West,4.6,-,N/A,,Mostly Cloudy,280,2013-07-11 02:53:00
10:53 PM,64.0,55.0,73,30.02,10.0,WNW,4.6,-,N/A,,Clear,300,2013-07-11 03:53:00
11:53 PM,63.0,55.9,78,30.03,10.0,West,3.5,-,N/A,,Clear,260,2013-07-11 04:53:00